[[{"header":{"parameterUnit":"m.s-1","parameterCategory":2,"la1":30.2992,"la2":30.254,"lo1":-89.0895,"lo2":-89.0443,"dy":0.0025,"dx":0.0025,"nx":19,"ny":19,"refTime":"2026-03-09T21:00:00:Z","depth":"0","parameterNumber":2,"parameterNumberName":"U-component_of_CURRENTS"},"data":[0,0,0,-0.2295,-0.2299,-0.2474,-0.2475,-0.2619,-0.262,0,0,0,0,0,0,0,0,0,0,0,-0.2209,-0.221,-0.2295,-0.23,-0.2474,-0.2475,-0.2619,-0.262,0,0,0,0,0,0,0,0,0,0,0,-0.2209,-0.221,-0.2211,-0.23,-0.2474,-0.2475,-0.2619,-0.2505,0,0,0,0,0,0,0,0,0,0,-0.2344,-0.2262,-0.2209,-0.2211,-0.2301,-0.2474,-0.2475,-0.25,-0.2512,-0.252,0,-0.2538,0,-0.2597,-0.2629,-0.2629,0,0,0,-0.2292,-0.2252,-0.2322,-0.2211,-0.2303,-0.2474,-0.2393,-0.2507,-0.2521,-0.2535,-0.2541,-0.2548,-0.2599,-0.263,-0.263,-0.2746,-0.2746,0,0,-0.2283,-0.2222,-0.2313,-0.233,-0.2337,-0.2388,-0.2399,-0.2516,-0.2509,-0.2542,-0.2553,-0.2602,-0.2631,-0.2632,-0.2745,-0.2746,0,0,0,-0.226,-0.2215,-0.2283,-0.2322,-0.2369,-0.2393,-0.2406,-0.2503,-0.2532,-0.2555,-0.2603,-0.2631,-0.2633,-0.2745,-0.2745,-0.2659,0,0,0,-0.2254,-0.2204,-0.2278,-0.2241,-0.2367,-0.2447,-0.2389,-0.2523,-0.254,-0.2603,-0.2631,-0.2634,-0.2745,-0.2745,-0.2661,-0.2634,0,0,0,-0.2203,-0.2198,-0.222,-0.2238,-0.2324,-0.2447,-0.2482,-0.2528,-0.257,-0.263,-0.2635,-0.2744,-0.2745,-0.2662,-0.2636,-0.2632,0,0,0,-0.2135,-0.2206,-0.2217,-0.2334,-0.2322,-0.2508,-0.2482,-0.2609,-0.2671,-0.2632,-0.2745,-0.2745,-0.2663,-0.2638,-0.2634,-0.2469,-0.2449,0,0,-0.2206,-0.2212,-0.2298,-0.2316,-0.249,-0.2484,-0.258,-0.2636,-0.2672,-0.2698,-0.2702,-0.266,-0.2637,-0.2632,-0.2511,-0.2489,0,0,0,-0.2314,-0.2359,-0.2425,-0.2518,-0.263,-0.2605,-0.2684,-0.2659,-0.2663,-0.2712,-0.27,-0.2689,-0.2688,-0.2593,-0.2576,-0.2509,-0.2749,-0.2749,-0.2749,-0.2257,-0.2382,-0.2496,-0.2616,-0.2672,-0.2707,-0.2679,-0.2645,-0.2702,-0.267,-0.2646,-0.2625,-0.2523,-0.2509,-0.2442,-0.2675,-0.2674,-0.2674,-0.2674,-0.2345,-0.2386,-0.2483,-0.2637,-0.2611,-0.2644,-0.2595,-0.2586,-0.2562,-0.2589,-0.2592,-0.2542,-0.2485,-0.242,-0.2669,-0.267,-0.267,-0.2671,-0.2671,-0.2275,-0.2291,-0.2427,-0.2536,-0.252,-0.2528,-0.2463,-0.2472,-0.2495,-0.2492,-0.2445,-0.2444,-0.2365,-0.2518,-0.2517,-0.2517,-0.2517,-0.2517,-0.2517,-0.2079,-0.2217,-0.2273,-0.2399,-0.2403,-0.238,-0.2396,-0.2401,-0.2375,-0.2358,-0.2358,-0.2342,-0.2578,-0.2558,-0.2515,-0.2515,-0.2515,-0.2516,-0.2516,-0.1933,-0.1982,-0.2064,-0.2115,-0.2182,-0.2124,-0.2222,-0.2196,-0.2228,-0.2178,-0.209,-0.2284,-0.2304,-0.2317,-0.2292,-0.2183,-0.2183,-0.2183,-0.2183,-0.1727,-0.1795,-0.1816,-0.1868,-0.1911,-0.1975,-0.1889,-0.1909,-0.1904,-0.184,-0.1919,-0.1888,-0.1905,-0.1903,-0.1925,-0.1894,-0.1687,-0.1687,-0.1686,-0.1551,-0.1607,-0.1538,-0.169,-0.1774,-0.1804,-0.166,-0.1582,-0.1591,-0.1668,-0.1859,-0.188,-0.1844,-0.1876,-0.1887,-0.1922,-0.1879,0,0]},{"header":{"parameterUnit":"m.s-1","parameterCategory":2,"la1":30.2992,"la2":30.254,"lo1":-89.0895,"lo2":-89.0443,"dy":0.0025,"dx":0.0025,"nx":19,"ny":19,"refTime":"2026-03-09T21:00:00:Z","depth":"0","parameterNumber":3,"parameterNumberName":"V-component_of_CURRENTS"},"data":[0,0,0,0.0435,0.0435,0.0493,0.0493,0.0585,0.0585,0,0,0,0,0,0,0,0,0,0,0,0.0404,0.0404,0.0435,0.0436,0.0493,0.0493,0.0585,0.0585,0,0,0,0,0,0,0,0,0,0,0,0.0404,0.0404,0.0403,0.0436,0.0493,0.0494,0.0584,0.0539,0,0,0,0,0,0,0,0,0,0,0.0482,0.0434,0.0404,0.0403,0.0436,0.0493,0.0494,0.0537,0.0542,0.056,0,0.0552,0,0.0571,0.0591,0.0591,0,0,0,0.0447,0.0429,0.0458,0.0403,0.0436,0.0493,0.047,0.054,0.0546,0.0567,0.0554,0.0557,0.0573,0.0591,0.0592,0.0568,0.0567,0,0,0.0444,0.0408,0.0453,0.0461,0.043,0.0468,0.0472,0.0543,0.0533,0.0554,0.056,0.0574,0.0592,0.0593,0.0569,0.0568,0,0,0,0.0427,0.0405,0.0432,0.0457,0.0466,0.047,0.0474,0.053,0.0541,0.0561,0.0575,0.0592,0.0593,0.057,0.0568,0.0403,0,0,0,0.0426,0.0396,0.043,0.0409,0.0464,0.0493,0.0458,0.0536,0.0545,0.0575,0.0592,0.0594,0.0571,0.0569,0.0409,0.0339,0,0,0,0.0405,0.0394,0.0396,0.0407,0.043,0.0492,0.0508,0.0538,0.0554,0.0591,0.0594,0.0571,0.0569,0.0415,0.0349,0.039,0,0,0,0.0374,0.0309,0.0395,0.0321,0.0429,0.0413,0.0508,0.051,0.053,0.0593,0.0571,0.0569,0.0417,0.0356,0.0395,0.0537,0.0529,0,0,0.0266,0.0295,0.025,0.0328,0.0269,0.0407,0.034,0.0418,0.0508,0.0553,0.0553,0.0407,0.035,0.0391,0.0417,0.0413,0,0,0,0.0198,0.0167,0.0163,0.0154,0.0193,0.0212,0.0306,0.0342,0.0381,0.051,0.0411,0.0381,0.0413,0.0508,0.0503,0.0681,0.0559,0.0559,0.0559,0.0017,0.0042,-0.0035,-0.0003,-0.0003,0.0079,0.0095,0.0169,0.0268,0.0255,0.0248,0.0167,0.0261,0.0261,0.0439,0.0252,0.0251,0.0251,0.0251,-0.0155,-0.02,-0.0172,-0.0227,-0.0175,-0.0191,-0.0115,-0.0043,0.0021,0.0089,0.013,0.0329,0.0246,0.0439,0.024,0.0242,0.0243,0.0244,0.0245,-0.0267,-0.0286,-0.0301,-0.0362,-0.0396,-0.0339,-0.0339,-0.0258,-0.0121,-0.011,0.013,0.0136,0.0314,-0.0044,-0.0044,-0.0044,-0.0044,-0.0044,-0.0045,-0.0361,-0.0383,-0.0448,-0.0498,-0.0527,-0.0543,-0.0454,-0.0361,-0.0153,-0.0026,-0.0022,0.0309,0.008,0.0102,-0.0048,-0.0047,-0.0047,-0.0046,-0.0046,-0.0471,-0.0472,-0.0575,-0.0617,-0.0681,-0.0642,-0.0579,-0.0276,-0.015,0.0009,0.0335,0.0069,0.0165,0.0173,0.02,0.0085,0.0085,0.0085,0.0085,-0.053,-0.0546,-0.066,-0.0735,-0.0796,-0.0696,-0.0421,-0.0126,0.0262,0.0455,0.0483,0.0572,0.0559,0.0684,0.068,0.072,0.0739,0.074,0.0741,-0.0578,-0.0613,-0.0688,-0.0762,-0.0831,-0.0677,-0.0291,0.0185,0.064,0.0779,0.0693,0.0665,0.0805,0.0771,0.0977,0.0957,0.1027,0,0]}],[{"header":{"parameterUnit":"m.s-1","parameterCategory":2,"la1":30.2992,"la2":30.254,"lo1":-89.0895,"lo2":-89.0443,"dy":0.0025,"dx":0.0025,"nx":19,"ny":19,"refTime":"2026-03-09T21:00:00:Z","depth":"2","parameterNumber":2,"parameterNumberName":"U-component_of_CURRENTS"},"data":[0,0,0,-0.1994,-0.1997,-0.2096,-0.2096,-0.2178,-0.2179,0,0,0,0,0,0,0,0,0,0,0,-0.1937,-0.1938,-0.1994,-0.1997,-0.2096,-0.2096,-0.2178,-0.2179,0,0,0,0,0,0,0,0,0,0,0,-0.1937,-0.1938,-0.1939,-0.1997,-0.2096,-0.2096,-0.2178,-0.211,0,0,0,0,0,0,0,0,0,0,-0.2017,-0.1997,-0.1938,-0.1939,-0.1998,-0.2096,-0.2096,-0.2107,-0.2114,-0.2126,0,-0.2142,0,-0.2181,-0.2185,-0.2186,0,0,0,-0.1978,-0.1991,-0.2007,-0.1939,-0.1999,-0.2096,-0.2046,-0.2111,-0.2119,-0.2136,-0.2144,-0.2148,-0.2183,-0.2186,-0.2186,-0.2213,-0.2212,0,0,-0.1972,-0.1967,-0.2001,-0.2012,-0.2026,-0.2043,-0.2049,-0.2116,-0.2131,-0.2144,-0.2151,-0.2184,-0.2186,-0.2187,-0.2213,-0.2213,0,0,0,-0.197,-0.1963,-0.1978,-0.2007,-0.204,-0.2046,-0.2054,-0.2127,-0.2129,-0.2152,-0.2185,-0.2187,-0.2188,-0.2214,-0.2213,-0.2231,0,0,0,-0.1965,-0.1963,-0.1975,-0.1974,-0.2039,-0.2098,-0.2063,-0.2123,-0.2134,-0.2184,-0.2187,-0.2189,-0.2214,-0.2213,-0.2232,-0.2233,0,0,0,-0.1933,-0.1961,-0.1968,-0.1973,-0.2027,-0.2098,-0.2104,-0.2126,-0.2155,-0.2186,-0.2189,-0.2214,-0.2213,-0.2232,-0.2234,-0.2232,0,0,0,-0.1926,-0.195,-0.1968,-0.2004,-0.2026,-0.2088,-0.2104,-0.2165,-0.2195,-0.2187,-0.2214,-0.2213,-0.2233,-0.2234,-0.2232,-0.2078,-0.2065,0,0,-0.1948,-0.1953,-0.197,-0.1989,-0.2026,-0.2073,-0.2123,-0.2173,-0.2175,-0.2187,-0.2188,-0.2232,-0.2234,-0.2232,-0.2022,-0.201,0,0,0,-0.1971,-0.196,-0.198,-0.2008,-0.2068,-0.211,-0.2171,-0.2182,-0.2193,-0.2193,-0.2207,-0.2206,-0.2206,-0.2112,-0.2102,-0.2208,-0.2209,-0.2209,-0.2209,-0.1938,-0.196,-0.1981,-0.2007,-0.2059,-0.2141,-0.2169,-0.2185,-0.2205,-0.2197,-0.2204,-0.2188,-0.2087,-0.2078,-0.2186,-0.2186,-0.2186,-0.2186,-0.2186,-0.1875,-0.1884,-0.1935,-0.1956,-0.2039,-0.2091,-0.2164,-0.2182,-0.2194,-0.2192,-0.2191,-0.2113,-0.2068,-0.2187,-0.2187,-0.2186,-0.2186,-0.2186,-0.2186,-0.1823,-0.1839,-0.1851,-0.1883,-0.1971,-0.2062,-0.211,-0.2163,-0.2187,-0.22,-0.2089,-0.2086,-0.2211,-0.22,-0.22,-0.22,-0.22,-0.22,-0.22,-0.1759,-0.1781,-0.1766,-0.1818,-0.1874,-0.1958,-0.2078,-0.2101,-0.2092,-0.208,-0.2079,-0.2193,-0.2192,-0.221,-0.22,-0.22,-0.22,-0.22,-0.22,-0.1653,-0.1695,-0.1643,-0.1672,-0.1764,-0.1774,-0.193,-0.1924,-0.1965,-0.1915,-0.2006,-0.2011,-0.1988,-0.1993,-0.2005,-0.1943,-0.1943,-0.1943,-0.1943,-0.1598,-0.1607,-0.1531,-0.1538,-0.1598,-0.1683,-0.1603,-0.1609,-0.1681,-0.168,-0.1691,-0.1645,-0.1661,-0.1619,-0.1633,-0.1637,-0.1479,-0.1478,-0.1477,-0.1492,-0.1496,-0.1418,-0.1443,-0.1514,-0.1533,-0.1372,-0.1239,-0.1278,-0.1462,-0.1644,-0.1905,-0.1867,-0.188,-0.1841,-0.1853,-0.1871,0,0]},{"header":{"parameterUnit":"m.s-1","parameterCategory":2,"la1":30.2992,"la2":30.254,"lo1":-89.0895,"lo2":-89.0443,"dy":0.0025,"dx":0.0025,"nx":19,"ny":19,"refTime":"2026-03-09T21:00:00:Z","depth":"2","parameterNumber":3,"parameterNumberName":"V-component_of_CURRENTS"},"data":[0,0,0,-0.0449,-0.0448,-0.0359,-0.0358,-0.0212,-0.021,0,0,0,0,0,0,0,0,0,0,0,-0.0478,-0.0478,-0.0449,-0.0447,-0.0359,-0.0358,-0.0212,-0.021,0,0,0,0,0,0,0,0,0,0,0,-0.0479,-0.0478,-0.0478,-0.0447,-0.0359,-0.0358,-0.0212,-0.0283,0,0,0,0,0,0,0,0,0,0,-0.0371,-0.0411,-0.0478,-0.0478,-0.0447,-0.0359,-0.0358,-0.0286,-0.0278,-0.0248,0,-0.0245,0,-0.0231,-0.0201,-0.0201,0,0,0,-0.0429,-0.0417,-0.0396,-0.0478,-0.0446,-0.036,-0.0394,-0.0282,-0.0273,-0.0237,-0.0243,-0.0238,-0.0229,-0.0201,-0.02,-0.0085,-0.0085,0,0,-0.0434,-0.0454,-0.0403,-0.0391,-0.0437,-0.0397,-0.0391,-0.0277,-0.0271,-0.0243,-0.0234,-0.0227,-0.02,-0.0199,-0.0085,-0.0085,0,0,0,-0.046,-0.0458,-0.0439,-0.0397,-0.0388,-0.0395,-0.0388,-0.0275,-0.0271,-0.0233,-0.0225,-0.0199,-0.0197,-0.0085,-0.0085,-0.0143,0,0,0,-0.0462,-0.0474,-0.0442,-0.0451,-0.0391,-0.0336,-0.039,-0.0278,-0.0265,-0.0226,-0.0199,-0.0196,-0.0086,-0.0085,-0.0142,-0.0187,0,0,0,-0.048,-0.0475,-0.047,-0.0453,-0.0423,-0.0337,-0.0325,-0.0275,-0.0261,-0.0201,-0.0196,-0.0086,-0.0085,-0.0141,-0.0184,-0.0165,0,0,0,-0.0495,-0.051,-0.0471,-0.0483,-0.0424,-0.038,-0.0326,-0.0282,-0.0236,-0.0198,-0.0086,-0.0085,-0.0141,-0.0183,-0.0164,-0.0134,-0.0136,0,0,-0.0527,-0.0514,-0.0522,-0.0486,-0.0472,-0.039,-0.0349,-0.027,-0.0212,-0.0118,-0.0115,-0.0142,-0.0184,-0.0165,-0.0098,-0.0101,0,0,0,-0.0542,-0.0546,-0.0536,-0.0516,-0.0467,-0.0405,-0.0318,-0.0266,-0.018,-0.0184,-0.0113,-0.0137,-0.0123,-0.0102,-0.0104,-0.0082,-0.0082,-0.0082,-0.0082,-0.0599,-0.0577,-0.0583,-0.0543,-0.0503,-0.0404,-0.0349,-0.0254,-0.0195,-0.0162,-0.0162,-0.0161,-0.0138,-0.0139,-0.0125,-0.0125,-0.0126,-0.0126,-0.0126,-0.0649,-0.0662,-0.0613,-0.0613,-0.054,-0.0488,-0.0359,-0.0306,-0.0212,-0.0176,-0.0158,-0.0137,-0.0145,-0.013,-0.0129,-0.0129,-0.0128,-0.0128,-0.0128,-0.0702,-0.0707,-0.0696,-0.0676,-0.0635,-0.0543,-0.049,-0.0392,-0.0276,-0.026,-0.0189,-0.0187,-0.0205,-0.0234,-0.0235,-0.0235,-0.0235,-0.0235,-0.0235,-0.0765,-0.0752,-0.0767,-0.0739,-0.0734,-0.0689,-0.0568,-0.0497,-0.0351,-0.0254,-0.0252,-0.0197,-0.0193,-0.0209,-0.0237,-0.0236,-0.0236,-0.0236,-0.0236,-0.0837,-0.0821,-0.0852,-0.0858,-0.0841,-0.0821,-0.0702,-0.0518,-0.0419,-0.0331,-0.0224,-0.0223,-0.0197,-0.0194,-0.0208,-0.0233,-0.0234,-0.0233,-0.0233,-0.0882,-0.0876,-0.0916,-0.0942,-0.0951,-0.0883,-0.0773,-0.0548,-0.0329,-0.0218,-0.0219,-0.0195,-0.0195,-0.0167,-0.0165,-0.0177,-0.0195,-0.0195,-0.0195,-0.0912,-0.0923,-0.0964,-0.0983,-0.1003,-0.0944,-0.0817,-0.0503,-0.0201,-0.0195,-0.023,-0.0227,-0.0193,-0.0193,-0.0148,-0.0145,-0.0164,0,0]}],[{"header":{"parameterUnit":"m.s-1","parameterCategory":2,"la1":30.2992,"la2":30.254,"lo1":-89.0895,"lo2":-89.0443,"dy":0.0025,"dx":0.0025,"nx":19,"ny":19,"refTime":"2026-03-09T21:00:00:Z","depth":"4","parameterNumber":2,"parameterNumberName":"U-component_of_CURRENTS"},"data":[0,0,0,-0.1223,-0.1226,-0.1352,-0.1353,-0.1446,-0.1447,0,0,0,0,0,0,0,0,0,0,0,-0.1184,-0.1185,-0.1223,-0.1226,-0.1352,-0.1353,-0.1446,-0.1447,0,0,0,0,0,0,0,0,0,0,0,-0.1183,-0.1185,-0.1186,-0.1226,-0.1352,-0.1353,-0.1446,-0.1369,0,0,0,0,0,0,0,0,0,0,-0.1255,-0.1224,-0.1184,-0.1186,-0.1227,-0.1352,-0.1353,-0.1366,-0.1373,-0.1368,0,-0.1393,0,-0.1417,-0.1451,-0.1451,0,0,0,-0.1231,-0.1218,-0.1253,-0.1186,-0.1228,-0.1352,-0.1297,-0.1371,-0.1379,-0.1377,-0.1395,-0.1399,-0.1418,-0.1451,-0.1452,-0.1558,-0.1559,0,0,-0.1224,-0.1204,-0.1247,-0.1259,-0.1267,-0.1293,-0.1301,-0.1377,-0.1385,-0.1395,-0.1401,-0.142,-0.1452,-0.1452,-0.1557,-0.1558,0,0,0,-0.12,-0.1199,-0.1234,-0.1254,-0.128,-0.1296,-0.1305,-0.1382,-0.1395,-0.1402,-0.1421,-0.1452,-0.1453,-0.1557,-0.1558,-0.1624,0,0,0,-0.1197,-0.1185,-0.1231,-0.122,-0.1279,-0.1341,-0.1309,-0.139,-0.1399,-0.1421,-0.1452,-0.1454,-0.1556,-0.1557,-0.1621,-0.1627,0,0,0,-0.1177,-0.1183,-0.12,-0.1219,-0.1271,-0.1341,-0.1359,-0.1393,-0.141,-0.1451,-0.1454,-0.1555,-0.1557,-0.1618,-0.1622,-0.162,0,0,0,-0.1148,-0.1176,-0.12,-0.1239,-0.127,-0.1352,-0.1359,-0.143,-0.147,-0.1452,-0.1556,-0.1558,-0.1617,-0.1619,-0.1618,-0.1367,0,0,0,-0.1163,-0.1177,-0.12,-0.1225,-0.13,-0.1335,-0.1431,-0.149,-0.1491,-0.1525,-0.1528,-0.1622,-0.1622,-0.162,-0.1467,0,0,0,0,-0.1192,-0.1207,-0.1235,-0.1287,-0.1351,-0.144,-0.1497,-0.1533,-0.1604,-0.1522,-0.1637,-0.1634,-0.1631,-0.1479,-0.1566,-0.1565,-0.1565,-0.1565,-0.1565,-0.117,-0.1216,-0.127,-0.1343,-0.1409,-0.1521,-0.1591,-0.165,-0.1647,-0.1699,-0.1701,-0.1759,-0.1606,-0.1726,-0.1727,-0.1727,-0.1727,-0.1727,-0.1728,-0.1177,-0.1202,-0.1297,-0.1371,-0.1484,-0.1577,-0.1699,-0.1733,-0.1796,-0.1787,-0.1781,-0.1576,-0.1735,-0.1733,-0.1732,-0.1731,-0.1731,-0.173,-0.173,-0.113,-0.1155,-0.1227,-0.1355,-0.1494,-0.1625,-0.1708,-0.1796,-0.1835,-0.1855,-0.1655,-0.1787,-0.1765,-0.1845,-0.1845,-0.1845,-0.1845,-0.1845,-0.1845,-0.1049,-0.1123,-0.1197,-0.1343,-0.1435,-0.1564,-0.1713,-0.1731,-0.1792,-0.1685,-0.1857,-0.1797,-0.1794,-0.177,-0.1846,-0.1846,-0.1846,-0.1846,-0.1846,-0.0972,-0.1031,-0.111,-0.1201,-0.1386,-0.1451,-0.1617,-0.1583,-0.1577,-0.1509,-0.1583,-0.1596,-0.1533,-0.1535,-0.15,-0.1499,-0.1496,-0.1493,0,-0.0914,-0.0952,-0.1044,-0.1139,-0.1226,-0.1376,-0.1313,-0.1353,-0.1387,-0.1345,-0.1583,-0.1669,-0.1675,-0.1609,-0.1606,-0.1566,0,0,0,-0.0876,-0.0911,-0.0941,-0.1056,-0.1145,-0.1183,-0.1286,-0.1226,-0.1404,-0.1295,-0.1417,-0.1437,-0.1678,-0.1849,-0.1782,-0.1778,-0.1736,0,0]},{"header":{"parameterUnit":"m.s-1","parameterCategory":2,"la1":30.2992,"la2":30.254,"lo1":-89.0895,"lo2":-89.0443,"dy":0.0025,"dx":0.0025,"nx":19,"ny":19,"refTime":"2026-03-09T21:00:00:Z","depth":"4","parameterNumber":3,"parameterNumberName":"V-component_of_CURRENTS"},"data":[0,0,0,-0.0365,-0.0365,-0.0357,-0.0357,-0.03,-0.0299,0,0,0,0,0,0,0,0,0,0,0,-0.0368,-0.0368,-0.0365,-0.0365,-0.0357,-0.0357,-0.03,-0.0299,0,0,0,0,0,0,0,0,0,0,0,-0.0368,-0.0368,-0.0368,-0.0365,-0.0357,-0.0357,-0.03,-0.0316,0,0,0,0,0,0,0,0,0,0,-0.0329,-0.0342,-0.0368,-0.0368,-0.0365,-0.0357,-0.0357,-0.0317,-0.0315,-0.0292,0,-0.0297,0,-0.0299,-0.0295,-0.0295,0,0,0,-0.0358,-0.0344,-0.0342,-0.0368,-0.0365,-0.0357,-0.0359,-0.0316,-0.0314,-0.0289,-0.0297,-0.0295,-0.0298,-0.0295,-0.0294,-0.0215,-0.0215,0,0,-0.0358,-0.0363,-0.0344,-0.0341,-0.037,-0.0359,-0.0358,-0.0315,-0.0314,-0.0297,-0.0294,-0.0297,-0.0294,-0.0294,-0.0216,-0.0215,0,0,0,-0.0364,-0.0363,-0.0363,-0.0342,-0.0346,-0.0359,-0.0358,-0.0316,-0.0316,-0.0293,-0.0296,-0.0294,-0.0293,-0.0216,-0.0215,-0.024,0,0,0,-0.0364,-0.0367,-0.0363,-0.0365,-0.0347,-0.0338,-0.036,-0.0319,-0.0315,-0.0297,-0.0294,-0.0292,-0.0216,-0.0216,-0.024,-0.0273,0,0,0,-0.0367,-0.0367,-0.0369,-0.0365,-0.0365,-0.0339,-0.0336,-0.0319,-0.0316,-0.0295,-0.0292,-0.0217,-0.0216,-0.024,-0.0272,-0.0265,0,0,0,-0.0367,-0.0389,-0.0369,-0.0391,-0.0365,-0.0366,-0.0337,-0.0334,-0.0321,-0.0294,-0.0216,-0.0215,-0.024,-0.0272,-0.0264,-0.0291,0,0,0,-0.0399,-0.0393,-0.0407,-0.0389,-0.0402,-0.0366,-0.0353,-0.0325,-0.0291,-0.0227,-0.0226,-0.024,-0.0272,-0.0265,-0.0234,0,0,0,0,-0.0419,-0.0427,-0.0429,-0.0429,-0.0417,-0.0386,-0.0352,-0.0313,-0.0255,-0.0279,-0.0214,-0.0233,-0.0228,-0.0241,-0.0211,-0.0211,-0.0211,-0.0211,-0.0211,-0.0454,-0.045,-0.0468,-0.0455,-0.0443,-0.0393,-0.0359,-0.0291,-0.0261,-0.0226,-0.0233,-0.0219,-0.0231,-0.0197,-0.0197,-0.0197,-0.0197,-0.0197,-0.0197,-0.0495,-0.0505,-0.0487,-0.0508,-0.0465,-0.0444,-0.0348,-0.0311,-0.0239,-0.0214,-0.0207,-0.024,-0.0199,-0.0198,-0.0198,-0.0198,-0.0198,-0.0198,-0.0198,-0.0517,-0.0523,-0.0537,-0.055,-0.0532,-0.048,-0.0441,-0.0364,-0.0277,-0.0265,-0.0262,-0.0233,-0.0254,-0.0255,-0.0255,-0.0255,-0.0255,-0.0256,-0.0256,-0.0535,-0.0546,-0.0583,-0.0591,-0.0605,-0.0584,-0.05,-0.0451,-0.036,-0.0302,-0.0277,-0.0239,-0.0237,-0.0256,-0.0257,-0.0257,-0.0257,-0.0257,-0.0256,-0.0566,-0.0573,-0.0632,-0.0662,-0.0687,-0.0665,-0.06,-0.0483,-0.0431,-0.0367,-0.0305,-0.0303,-0.0299,-0.0296,-0.0317,-0.0336,-0.0336,-0.0337,0,-0.0581,-0.0589,-0.0671,-0.0727,-0.0748,-0.0708,-0.0637,-0.056,-0.0442,-0.0435,-0.0436,-0.0373,-0.0368,-0.0371,-0.0368,-0.0397,0,0,0,-0.0598,-0.0623,-0.0687,-0.0745,-0.0776,-0.0676,-0.0612,-0.0569,-0.0456,-0.0405,-0.0346,-0.0344,-0.034,-0.0262,-0.0249,-0.0247,-0.0277,0,0]}]]